OE3UKW Weather Reports


Display with metric or nautical units.
time (UTC)temp
F
wind
direction
speed
MPH
gust
MPH
rain 1hr
in
rain 24hr
in
rain mn
in
humidity
%
barometer
mb
20260508041125 49 355 4.0 7.0 0.00 0.00 0.00 65 1017.3
20260508040110 48 344 4.0 6.0 0.00 0.00 0.00 66 1017.3
20260508035110 48 321 5.0 8.0 0.00 0.00 0.00 65 1017.2
20260508034110 48 312 3.0 4.0 0.00 0.00 0.00 65 1017.2
20260508033110 48 19 3.0 4.0 0.00 0.00 0.00 65 1017.0
20260508032110 48 16 3.0 5.0 0.00 0.00 0.00 65 1016.8
20260508031110 49 337 3.0 6.0 0.00 0.00 0.00 64 1016.9
20260508030110 49 329 3.0 4.0 0.00 0.00 0.00 62 1017.0
20260508025109 49 340 4.0 5.0 0.00 0.00 0.00 62 1016.8
20260508024110 50 333 3.0 4.0 0.00 0.00 0.00 60 1016.9
20260508023109 51 327 2.0 3.0 0.00 0.00 0.00 59 1016.8
20260508022110 51 326 3.0 3.0 0.00 0.00 0.00 60 1016.8
20260508021109 52 327 1.0 3.0 0.00 0.00 0.00 60 1016.8
20260508020109 52 326 3.0 5.0 0.00 0.00 0.00 59 1016.8
20260508015109 53 306 6.0 8.0 0.00 0.00 0.00 58 1016.8
20260508014109 53 308 5.0 7.0 0.00 0.00 0.00 58 1016.8
20260508013109 53 301 5.0 8.0 0.00 0.00 0.00 58 1016.7
20260508012124 54 295 8.0 11.0 0.00 0.00 0.00 58 1016.7
20260508011109 54 313 6.0 6.0 0.00 0.00 0.00 57 1016.4
20260508005112 55 327 6.0 11.0 0.00 0.00 0.00 57 1016.4
20260508004127 55 300 9.0 11.0 0.00 0.00 0.00 57 1016.5
20260508003112 55 290 7.0 10.0 0.00 0.00 0.00 57 1016.2
20260508002112 55 310 8.0 10.0 0.00 0.00 0.00 57 1016.2
20260508001112 56 307 5.0 10.0 0.00 0.00 0.00 57 1016.3
20260508000112 56 305 6.0 9.0 0.00 0.00 0.00 57 1016.1
20260507235112 56 307 7.0 11.0 0.00 0.00 0.00 58 1016.2
20260507234112 56 302 6.0 14.0 0.00 0.00 0.00 58 1016.3
20260507233112 56 288 8.0 13.0 0.00 0.00 0.00 59 1016.2
20260507232112 56 277 9.0 11.0 0.00 0.00 0.00 59 1016.2
20260507231112 56 269 6.0 11.0 0.00 0.00 0.00 60 1016.3
20260507230112 56 265 7.0 10.0 0.00 0.00 0.00 61 1016.2
20260507225112 56 216 7.0 14.0 0.00 0.00 0.00 62 1016.1
20260507224112 56 250 8.0 11.0 0.00 0.00 0.00 63 1016.2
20260507223112 56 244 9.0 12.0 0.00 0.00 0.00 64 1016.0
20260507222112 56 242 9.0 13.0 0.00 0.00 0.00 64 1015.9
20260507221112 56 235 10.0 13.0 0.00 0.00 0.00 64 1015.8
20260507220112 56 234 10.0 15.0 0.00 0.00 0.00 64 1015.7
20260507215112 56 226 13.0 17.0 0.00 0.00 0.00 65 1015.6
20260507214112 56 238 15.0 18.0 0.00 0.00 0.00 66 1015.7
20260507213112 56 231 15.0 19.0 0.00 0.00 0.00 66 1015.6
20260507212112 56 223 17.0 19.0 0.00 0.00 0.00 66 1015.6
20260507211112 56 219 18.0 22.0 0.00 0.00 0.00 67 1015.6
20260507210112 56 224 14.0 20.0 0.00 0.00 0.00 68 1015.4
20260507205112 56 221 13.0 17.0 0.00 0.00 0.00 68 1015.5
20260507204112 56 241 13.0 19.0 0.00 0.00 0.00 67 1015.6
20260507203111 56 213 12.0 18.0 0.00 0.00 0.00 67 1015.4
20260507202111 57 226 14.0 16.0 0.00 0.00 0.00 67 1015.4
20260507201111 57 216 8.0 14.0 0.00 0.00 0.00 66 1015.3
20260507200112 58 231 9.0 11.0 0.00 0.00 0.00 66 1015.3
20260507195111 58 236 7.0 12.0 0.00 0.00 0.00 65 1015.1
20260507194112 58 210 10.0 14.0 0.00 0.00 0.00 64 1014.9
20260507193111 58 219 9.0 15.0 0.00 0.00 0.00 64 1014.9
20260507192111 58 235 11.0 14.0 0.00 0.00 0.00 63 1014.7
20260507191112 58 193 11.0 14.0 0.00 0.00 0.00 63 1014.6
20260507190111 58 234 9.0 12.0 0.00 0.00 0.00 62 1014.5
20260507185111 58 235 9.0 14.0 0.00 0.00 0.00 62 1014.4
20260507184111 59 207 12.0 17.0 0.00 0.00 0.00 62 1014.2
20260507183111 59 233 11.0 15.0 0.00 0.00 0.00 61 1014.1
20260507182111 60 220 10.0 14.0 0.00 0.00 0.00 60 1014.1
20260507181111 60 199 8.0 13.0 0.00 0.00 0.00 58 1014.1
20260507180111 61 229 9.0 13.0 0.00 0.00 0.00 55 1013.8
20260507175111 62 221 13.0 15.0 0.00 0.00 0.00 51 1013.9
20260507174111 63 216 9.0 14.0 0.00 0.00 0.00 48 1013.9
20260507173111 63 213 10.0 13.0 0.00 0.00 0.00 45 1013.8
20260507172111 64 215 9.0 14.0 0.00 0.00 0.00 43 1013.7
20260507171111 64 222 8.0 15.0 0.00 0.00 0.00 42 1013.5
20260507170111 65 233 12.0 15.0 0.00 0.00 0.00 41 1013.4
20260507165111 66 211 12.0 17.0 0.00 0.00 0.00 39 1013.2
20260507164111 67 217 12.0 16.0 0.00 0.00 0.00 38 1013.1
20260507163111 68 218 10.0 13.0 0.00 0.00 0.00 35 1013.0
20260507162111 68 201 9.0 13.0 0.00 0.00 0.00 34 1012.8
20260507161111 69 184 10.0 12.0 0.00 0.00 0.00 34 1012.8
20260507160111 70 175 9.0 11.0 0.00 0.00 0.00 33 1012.7
20260507155111 70 184 6.0 10.0 0.00 0.00 0.00 30 1012.8
20260507154111 71 185 7.0 10.0 0.00 0.00 0.00 30 1012.7
20260507153111 71 188 8.0 9.0 0.00 0.00 0.00 29 1012.8
20260507152111 71 165 8.0 13.0 0.00 0.00 0.00 29 1012.7
20260507151111 71 192 8.0 11.0 0.00 0.00 0.00 29 1012.7
20260507150111 72 187 10.0 14.0 0.00 0.00 0.00 28 1012.7
20260507145111 73 175 4.0 10.0 0.00 0.00 0.00 28 1012.7
20260507144111 74 201 4.0 8.0 0.00 0.00 0.00 26 1013.0
20260507143111 74 213 9.0 11.0 0.00 0.00 0.00 26 1012.9
20260507142111 74 173 8.0 10.0 0.00 0.00 0.00 26 1012.9
20260507141111 74 132 4.0 12.0 0.00 0.00 0.00 28 1013.0
20260507140111 73 198 1.0 8.0 0.00 0.00 0.00 31 1013.0
20260507135111 72 231 7.0 10.0 0.00 0.00 0.00 28 1012.9
20260507134111 72 232 10.0 12.0 0.00 0.00 0.00 30 1012.9
20260507133111 73 236 9.0 15.0 0.00 0.00 0.00 29 1013.2
20260507132111 73 249 5.0 9.0 0.00 0.00 0.00 31 1013.1
20260507131110 73 270 5.0 8.0 0.00 0.00 0.00 31 1013.1
20260507130111 73 294 5.0 11.0 0.00 0.00 0.00 30 1013.2
20260507125111 73 284 3.0 10.0 0.00 0.00 0.00 34 1013.2
20260507124110 73 333 5.0 10.0 0.00 0.00 0.00 31 1013.3
20260507123111 72 303 8.0 13.0 0.00 0.00 0.00 33 1013.4
20260507122111 72 245 3.0 9.0 0.00 0.00 0.00 33 1013.5
20260507121110 72 313 4.0 8.0 0.00 0.00 0.00 34 1013.6
20260507120111 71 225 8.0 12.0 0.00 0.00 0.00 36 1013.6
20260507115110 70 336 4.0 9.0 0.00 0.00 0.00 35 1013.6
20260507114110 70 299 9.0 11.0 0.00 0.00 0.00 34 1013.7
20260507113111 70 360 6.0 10.0 0.00 0.00 0.00 37 1014.0
20260507112111 69 263 8.0 12.0 0.00 0.00 0.00 36 1014.0
20260507111110 69 250 7.0 10.0 0.00 0.00 0.00 40 1014.0
20260507110110 67 229 4.0 14.0 0.00 0.00 0.00 40 1014.2
20260507105110 67 235 5.0 12.0 0.00 0.00 0.00 41 1014.3
20260507104110 67 232 11.0 13.0 0.00 0.00 0.00 42 1014.2
20260507103110 67 224 7.0 14.0 0.00 0.00 0.00 41 1014.3
20260507102110 67 269 8.0 13.0 0.00 0.00 0.00 42 1014.3
20260507101110 66 230 8.0 13.0 0.00 0.00 0.00 44 1014.2
20260507100110 65 234 10.0 13.0 0.00 0.00 0.00 45 1014.2
20260507095110 65 233 9.0 13.0 0.00 0.00 0.00 45 1014.2
20260507094111 64 235 10.0 16.0 0.00 0.00 0.00 45 1014.2
20260507093110 64 268 8.0 13.0 0.00 0.00 0.00 46 1014.1
20260507092110 64 313 9.0 12.0 0.00 0.00 0.00 46 1014.0
20260507091110 64 241 12.0 14.0 0.00 0.00 0.00 44 1013.9
20260507090110 64 225 9.0 13.0 0.00 0.00 0.00 45 1013.8
20260507085110 65 253 8.0 13.0 0.00 0.00 0.00 45 1013.7
20260507084110 64 257 8.0 15.0 0.00 0.00 0.00 48 1013.4
20260507083110 63 261 8.0 12.0 0.00 0.00 0.00 49 1013.4
20260507082110 62 285 5.0 11.0 0.00 0.00 0.00 49 1013.4
20260507081110 62 233 7.0 12.0 0.00 0.00 0.00 49 1013.4
20260507080110 62 286 9.0 15.0 0.00 0.00 0.00 47 1013.2
20260507075110 62 205 10.0 15.0 0.00 0.00 0.00 47 1013.1
20260507074110 62 287 12.0 16.0 0.00 0.00 0.00 48 1012.9
20260507073110 61 286 5.0 11.0 0.00 0.00 0.00 49 1012.7
20260507072110 61 273 9.0 14.0 0.00 0.00 0.00 49 1012.8
20260507071110 61 246 10.0 16.0 0.00 0.00 0.00 50 1012.6
20260507070110 61 254 7.0 18.0 0.00 0.00 0.00 49 1012.7
20260507065110 61 260 8.0 14.0 0.00 0.00 0.00 49 1012.6
20260507064110 61 261 14.0 18.0 0.00 0.00 0.00 49 1012.5
20260507063110 61 268 7.0 15.0 0.00 0.00 0.00 49 1012.5
20260507062110 61 265 10.0 20.0 0.00 0.00 0.00 50 1012.4
20260507061110 60 265 6.0 18.0 0.00 0.00 0.00 51 1012.3
20260507060110 60 255 13.0 17.0 0.00 0.00 0.00 52 1012.3
20260507055110 60 242 10.0 16.0 0.00 0.00 0.00 52 1012.2
20260507054110 60 240 12.0 15.0 0.00 0.00 0.00 54 1012.2
20260507053110 59 265 7.0 13.0 0.00 0.00 0.00 54 1012.2
20260507052110 59 235 8.0 16.0 0.00 0.00 0.00 54 1012.0
20260507051110 58 252 13.0 16.0 0.00 0.00 0.00 55 1012.0
20260507050110 58 257 12.0 18.0 0.00 0.00 0.00 55 1011.5
20260507045110 58 236 11.0 16.0 0.00 0.00 0.00 56 1011.4
20260507044110 58 237 15.0 22.0 0.00 0.00 0.00 56 1011.3
20260507043109 58 261 14.0 21.0 0.00 0.00 0.00 56 1011.2
20260507042109 58 258 14.0 21.0 0.00 0.00 0.00 56 1011.1